Home   Weather   Medan   Past weeks

Flag for Indonesia Past Weather in Medan, North Sumatra, Indonesia — Yesterday and Last 2 Weeks

Now
86 °F

Scattered clouds.


Feels Like: 95 °F
Forecast: 75 / 91 °F
Wind: 6 mph from East

Location: Medan / Polonia

Current Time: Jun 26, 2017 at 12:25:25 pm

Latest Report: Jun 26, 2017 at 11:30 am


Visibility: N/A

Pressure: 29.80 "Hg

Humidity: 70%

Dew Point: 75 °F

Location of MedanLocation

Past Weather in Medan — Graph

°F

Medan Temperature Yesterday

Maximum temperature yesterday: 88 °F (at 12:30 pm)
Minimum temperature yesterday: 75 °F (at 12:00 am)
Average temperature yesterday: 81 °F

High & Low Weather Summary for the Past Weeks

 TemperatureHumidityPressure
High91 °F (Jun 11, 1:00 pm)100% (Jun 12, 6:00 am)29.89 "Hg (Jun 12, 6:00 am)
Low73 °F (Jun 22, 9:30 pm)55% (Jun 20, 1:00 pm)29.68 "Hg (Jun 24, 4:00 pm)
Average82 °F84%29.80 "Hg
* Reported Jun 11 11:00 am — Jun 26 11:30 am, Medan. Weather by CustomWeather, © 2017

Note: Actual official high and low records may vary slightly from our data, if they occured in-between our weather recording intervals... More about our weather records

Advertising

Medan Weather History for the Previous 24 Hours

Scroll right to see more
 ConditionsComfort  
Time TempWeatherWind HumidityBarometerVisibility
11:30 am
Mon, Jun 26
86 °FScattered clouds.6 mph70%29.80 "HgN/A
11:00 am88 °FScattered clouds.8 mph66%29.83 "HgN/A
10:30 am88 °FPassing clouds.7 mph66%29.83 "HgN/A
10:00 am86 °FPassing clouds.7 mph70%29.83 "HgN/A
9:30 am84 °FPassing clouds.8 mph70%29.83 "HgN/A
9:00 am82 °FScattered clouds.7 mph74%29.83 "HgN/A
8:30 am81 °FScattered clouds.7 mph79%29.83 "Hg5 mi
8:00 am79 °FScattered clouds.5 mph84%29.83 "HgN/A
7:30 am79 °FPartly sunny.6 mph89%29.80 "Hg4 mi
7:00 am77 °FScattered clouds.6 mph94%29.80 "HgN/A
6:30 am77 °FPartly sunny.7 mph94%29.80 "HgN/A
6:00 am77 °FPassing clouds.No wind94%29.80 "HgN/A
5:30 am77 °FPassing clouds.No wind94%29.80 "Hg6 mi
5:00 am77 °FPassing clouds.3 mph94%29.80 "HgN/A
4:30 am77 °FPassing clouds.3 mph94%29.80 "HgN/A
4:00 am77 °FPassing clouds.No wind94%29.77 "HgN/A
3:30 am77 °FPassing clouds.3 mph94%29.77 "HgN/A
3:00 am77 °FPassing clouds.No wind94%29.77 "HgN/A
2:30 am77 °FPassing clouds.3 mph94%29.77 "Hg6 mi
2:00 am77 °FPassing clouds.3 mph94%29.80 "Hg6 mi
1:30 am77 °FPassing clouds.5 mph94%29.80 "Hg6 mi
1:00 am79 °FPassing clouds.6 mph89%29.80 "HgN/A
12:30 am79 °FPassing clouds.6 mph89%29.83 "Hg6 mi
12:00 am79 °FPassing clouds.7 mph89%29.83 "Hg5 mi
11:30 pm
Sun, Jun 25
79 °FPassing clouds.5 mph89%29.86 "Hg6 mi
11:00 pm79 °FPassing clouds.No wind89%29.86 "Hg6 mi
10:30 pm81 °FPassing clouds.6 mph89%29.83 "Hg6 mi
10:00 pm81 °FPassing clouds.3 mph89%29.83 "Hg5 mi
9:30 pm81 °FPassing clouds.5 mph94%29.83 "Hg4 mi
9:00 pm81 °FPassing clouds.3 mph94%29.80 "Hg6 mi
8:30 pm81 °FPassing clouds.3 mph94%29.80 "Hg4 mi
8:00 pm81 °FPassing clouds.No wind94%29.77 "HgN/A
7:30 pm81 °FPassing clouds.No wind94%29.74 "HgN/A
7:00 pm82 °FPassing clouds.No wind84%29.74 "HgN/A
6:30 pm84 °FScattered clouds.5 mph79%29.74 "HgN/A
6:00 pm84 °FScattered clouds.6 mph79%29.74 "HgN/A
5:30 pm84 °FScattered clouds.6 mph79%29.71 "HgN/A
5:00 pm84 °FScattered clouds.6 mph79%29.74 "HgN/A
4:30 pm84 °FScattered clouds.9 mph79%29.74 "HgN/A
4:00 pm86 °FPassing clouds.9 mph70%29.74 "HgN/A
3:30 pm86 °FPassing clouds.7 mph75%29.74 "HgN/A
3:00 pm86 °FScattered clouds.10 mph75%29.74 "HgN/A
2:30 pm86 °FScattered clouds.12 mph70%29.74 "HgN/A
2:00 pm88 °FScattered clouds.9 mph66%29.74 "HgN/A
1:30 pm88 °FPassing clouds.10 mph70%29.77 "HgN/A
1:00 pm88 °FPassing clouds.7 mph66%29.77 "HgN/A
12:30 pm88 °FPassing clouds.8 mph66%29.77 "HgN/A
12:00 pm86 °FPassing clouds.9 mph70%29.80 "HgN/A
Weather by CustomWeather, © 2017

See weather overviewHow to use our weather pages